Waarnemingen

Advertentie
Mijn weer
Toledo, Spanje (8272): temperatuur & dauwpunt: 18.07.2019 06:00:00 - 24.07.2019 06:00:00 (CEST)Toledo, Spanje (8272): windsnelheid & windstoten: 18.07.2019 06:00:00 - 24.07.2019 06:00:00 (CEST)Toledo, Spanje (8272): windrichting: 18.07.2019 06:00:00 - 24.07.2019 06:00:00 (CEST)Toledo, Spanje (8272): luchtdruk: 18.07.2019 06:00:00 - 24.07.2019 06:00:00 (CEST)Toledo, Spanje (8272): zicht: 18.07.2019 06:00:00 - 24.07.2019 06:00:00 (CEST)Toledo, Spanje (8272): neerslag: 18.07.2019 06:00:00 - 24.07.2019 06:00:00 (CEST)
Datum & Tijd tt [°C] td [°C] ff [km/u] ff [kn] fx [km/u] fx [kn] dd ppp [hPa] vv [km] rr [mm]
24.07.2019 06:00:00 20,7 15,3 4 2 - - ZO 1014,7 20 0,0
24.07.2019 05:00:00 21,2 14,8 2 1 - - NW 1014,6 20 -
24.07.2019 04:00:00 21,4 15,9 8 4 - - O 1014,7 20 0,0
24.07.2019 03:00:00 23,0 14,3 4 2 - - NNO 1014,3 20 0,0
24.07.2019 02:00:00 24,5 14,3 15 8 - - OZO 1014,3 20 -
24.07.2019 01:00:00 24,2 14,3 18 10 - - O 1014,5 20 0,0
24.07.2019 00:00:00 22,6 15,7 21 11 - - OZO 1014,7 15 3,0
23.07.2019 23:00:00 22,5 15,3 26 14 - - O 1016,2 19 -
23.07.2019 22:00:00 24,0 15,5 16 9 - - W 1017,0 8 1,0
23.07.2019 21:00:00 29,8 11,3 11 6 - - NNW 1013,7 20 0,0
23.07.2019 20:00:00 30,2 10,7 21 11 - - WNW 1010,8 20 -
23.07.2019 19:00:00 28,4 15,0 29 16 91 49 ZW 1012,1 6 0,8
23.07.2019 18:00:00 40,0 7,4 16 9 - - W 1007,7 20 0,0
23.07.2019 17:00:00 38,5 7,3 5 3 - - O 1009,0 20 -
23.07.2019 16:00:00 38,5 6,3 15 8 - - ZO 1010,1 20 0,0
23.07.2019 15:00:00 38,2 6,0 15 8 - - OZO 1010,9 20 0,0
23.07.2019 14:00:00 35,8 6,9 11 6 - - O 1012,1 20 -
23.07.2019 13:00:00 33,6 8,3 11 6 - - ONO 1013,5 20 0,0
23.07.2019 12:00:00 30,8 10,7 9 5 - - N 1014,6 20 0,0
23.07.2019 11:00:00 28,8 10,0 8 4 - - ZZW 1015,6 20 -
23.07.2019 10:00:00 26,8 10,1 15 8 - - ZO 1015,7 20 0,0
23.07.2019 09:00:00 23,8 11,8 13 7 - - OZO 1016,6 20 0,0
23.07.2019 08:00:00 22,6 13,4 9 5 - - ONO 1016,9 20 -
23.07.2019 07:00:00 22,3 12,8 13 7 - - N 1017,3 19 0,0
23.07.2019 06:00:00 22,1 12,6 15 8 - - ONO 1016,4 20 1,0
23.07.2019 05:00:00 24,7 10,6 13 7 - - O 1016,0 20 -
23.07.2019 04:00:00 28,2 5,1 21 11 - - O 1014,7 20 0,0
23.07.2019 03:00:00 29,4 1,8 8 4 - - ZO 1014,6 20 0,0
23.07.2019 02:00:00 29,6 2,0 18 10 - - O 1013,9 20 -
23.07.2019 01:00:00 30,6 1,9 21 11 - - O 1013,4 20 0,0
23.07.2019 00:00:00 31,8 1,0 22 12 - - O 1013,2 20 0,0
22.07.2019 23:00:00 33,2 2,1 21 11 - - O 1012,7 20 -
22.07.2019 22:00:00 34,9 3,4 22 12 - - ZO 1011,7 20 0,0
22.07.2019 21:00:00 36,7 5,8 26 14 - - OZO 1010,7 20 0,0
22.07.2019 20:00:00 37,9 7,7 16 9 - - OZO 1010,4 20 -
22.07.2019 19:00:00 40,0 7,4 13 7 - - ZZO 1010,4 20 0,0
22.07.2019 18:00:00 39,9 9,3 13 7 - - ZZO 1011,1 19 0,0
22.07.2019 17:00:00 39,6 10,0 13 7 - - ZO 1011,9 20 -
22.07.2019 16:00:00 38,6 11,6 18 10 - - O 1012,8 20 0,0
22.07.2019 15:00:00 37,4 12,1 18 10 - - OZO 1013,9 20 0,0
22.07.2019 14:00:00 36,0 12,3 21 11 - - OZO 1014,7 20 -
22.07.2019 13:00:00 34,6 12,3 18 10 - - OZO 1015,5 20 0,0
22.07.2019 12:00:00 32,3 11,5 18 10 - - OZO 1016,6 20 0,0
22.07.2019 11:00:00 29,7 11,2 21 11 - - OZO 1017,4 20 -
22.07.2019 10:00:00 26,9 12,2 21 11 - - O 1018,1 20 0,0
22.07.2019 09:00:00 25,0 11,5 18 10 - - O 1018,5 20 0,0
22.07.2019 08:00:00 23,5 9,8 16 9 - - O 1018,5 20 -
22.07.2019 07:00:00 23,7 10,0 21 11 - - O 1018,3 20 0,0
22.07.2019 06:00:00 24,3 10,2 21 11 - - O 1017,9 20 0,0
22.07.2019 05:00:00 25,1 10,2 16 9 - - O 1017,7 20 -
22.07.2019 04:00:00 26,2 10,4 24 13 - - O 1017,2 20 0,0
22.07.2019 03:00:00 27,8 9,1 26 14 - - OZO 1016,3 20 0,0
22.07.2019 02:00:00 28,6 10,7 26 14 - - OZO 1016,5 20 -
22.07.2019 01:00:00 29,6 11,6 24 13 - - OZO 1016,3 20 0,0
22.07.2019 00:00:00 31,3 13,1 24 13 - - OZO 1015,2 20 0,0
21.07.2019 23:00:00 33,4 11,3 15 8 - - O 1014,2 20 -
21.07.2019 22:00:00 33,6 11,4 11 6 - - O 1013,1 20 0,0
21.07.2019 21:00:00 35,8 10,8 8 4 - - O 1012,1 20 0,0
21.07.2019 20:00:00 36,8 10,9 11 6 - - OZO 1011,5 20 -
21.07.2019 19:00:00 39,7 10,9 13 7 - - O 1010,7 20 0,0
21.07.2019 18:00:00 40,1 10,4 9 5 - - O 1010,8 20 0,0
21.07.2019 17:00:00 40,2 10,5 5 3 - - NO 1011,4 20 -
21.07.2019 16:00:00 39,2 10,5 8 4 - - O 1012,3 20 0,0
21.07.2019 15:00:00 38,1 12,0 5 3 - - OZO 1013,1 20 0,0
21.07.2019 14:00:00 36,0 12,9 9 5 - - ZO 1013,9 20 -
21.07.2019 13:00:00 34,6 13,4 9 5 - - OZO 1014,6 20 0,0
21.07.2019 12:00:00 32,4 13,1 11 6 - - OZO 1015,2 20 0,0
21.07.2019 11:00:00 29,8 12,2 11 6 - - O 1015,4 20 -
21.07.2019 10:00:00 27,4 11,8 15 8 - - O 1015,9 20 0,0
21.07.2019 09:00:00 25,9 11,6 16 9 - - O 1015,8 20 0,0
21.07.2019 08:00:00 24,5 10,4 11 6 - - O 1015,6 20 -
21.07.2019 07:00:00 24,5 8,4 16 9 - - O 1015,0 20 0,0
21.07.2019 06:00:00 25,1 8,6 18 10 - - O 1014,6 20 0,0
21.07.2019 05:00:00 26,2 9,5 15 8 - - O 1014,0 20 -
21.07.2019 04:00:00 27,3 10,5 13 7 - - O 1013,6 20 0,0
21.07.2019 03:00:00 28,8 11,4 13 7 - - OZO 1013,2 20 0,0
21.07.2019 02:00:00 29,2 11,3 13 7 - - O 1013,2 20 -
21.07.2019 01:00:00 30,1 9,0 9 5 - - O 1013,1 20 0,0
21.07.2019 00:00:00 31,4 9,0 5 3 - - WNW 1011,9 20 0,0
20.07.2019 23:00:00 32,9 9,7 8 4 - - WNW 1011,4 20 -
20.07.2019 22:00:00 34,6 9,8 15 8 - - WNW 1010,0 20 0,0
20.07.2019 21:00:00 36,5 9,9 18 10 - - NW 1009,0 20 0,0
20.07.2019 20:00:00 38,1 10,5 16 9 - - NW 1008,3 20 -
20.07.2019 19:00:00 39,4 10,7 8 4 - - WZW 1007,8 20 0,0
20.07.2019 18:00:00 39,7 10,1 11 6 - - W 1008,0 20 0,0
20.07.2019 17:00:00 39,3 10,6 15 8 - - ZZO 1008,3 20 -
20.07.2019 16:00:00 39,0 10,4 15 8 - - W 1008,7 20 0,0
20.07.2019 15:00:00 37,7 10,9 11 6 - - W 1009,5 20 0,0
20.07.2019 14:00:00 35,7 11,4 8 4 - - ZZW 1010,3 20 -
20.07.2019 13:00:00 33,9 12,3 13 7 - - ZO 1010,9 20 0,0
20.07.2019 12:00:00 31,7 12,5 11 6 - - OZO 1011,6 20 0,0
20.07.2019 11:00:00 29,1 12,5 8 4 - - ONO 1011,9 20 -
20.07.2019 10:00:00 26,6 12,3 11 6 - - OZO 1012,4 20 0,0
20.07.2019 09:00:00 24,8 11,7 15 8 - - OZO 1012,3 20 0,0
20.07.2019 08:00:00 23,1 10,8 11 6 - - O 1012,0 20 -
20.07.2019 07:00:00 23,3 10,0 15 8 - - O 1011,3 20 0,0
20.07.2019 06:00:00 24,0 9,6 16 9 - - O 1010,7 20 0,0
20.07.2019 05:00:00 24,6 8,5 11 6 - - NO 1010,4 20 -
20.07.2019 04:00:00 25,9 8,4 15 8 - - O 1009,6 20 0,0
20.07.2019 03:00:00 27,2 8,1 16 9 - - O 1009,3 20 0,0
20.07.2019 02:00:00 28,6 7,2 13 7 - - O 1009,1 20 -
20.07.2019 01:00:00 31,0 7,4 11 6 - - O 1008,8 20 0,0
20.07.2019 00:00:00 31,7 6,0 5 3 - - O 1008,5 20 0,0
19.07.2019 23:00:00 32,9 8,4 9 5 - - NNW 1008,0 20 -
19.07.2019 22:00:00 34,4 8,2 11 6 - - N 1007,2 20 0,0
19.07.2019 21:00:00 37,5 10,0 5 3 - - NNO 1006,2 20 0,0
19.07.2019 20:00:00 37,9 9,5 5 3 - - WZW 1006,1 20 -
19.07.2019 19:00:00 38,8 9,4 11 6 - - W 1005,9 20 0,0
19.07.2019 18:00:00 39,1 10,5 8 4 - - W 1006,3 20 0,0
19.07.2019 17:00:00 38,4 9,9 8 4 - - ONO 1006,9 20 -
19.07.2019 16:00:00 38,3 10,6 8 4 - - NO 1007,5 20 0,0
19.07.2019 15:00:00 37,6 10,8 8 4 - - W 1008,6 20 0,0
19.07.2019 14:00:00 36,3 11,2 8 4 - - ZZO 1009,7 20 -
19.07.2019 13:00:00 33,6 11,4 8 4 - - OZO 1010,9 20 0,0
19.07.2019 12:00:00 31,5 11,3 11 6 - - OZO 1011,8 20 0,0
19.07.2019 11:00:00 28,5 11,1 15 8 - - OZO 1012,6 20 -
19.07.2019 10:00:00 26,2 11,1 15 8 - - O 1013,1 20 0,0
19.07.2019 09:00:00 24,1 10,7 18 10 - - O 1013,2 20 0,0
19.07.2019 08:00:00 22,2 11,3 13 7 - - O 1013,2 20 -
19.07.2019 07:00:00 22,6 11,3 13 7 - - O 1012,9 20 0,0
19.07.2019 06:00:00 23,8 11,1 16 9 - - O 1012,2 20 0,0
19.07.2019 05:00:00 25,3 11,5 11 6 - - ONO 1011,9 20 -
19.07.2019 04:00:00 26,6 11,5 13 7 - - NO 1011,6 20 0,0
19.07.2019 03:00:00 27,3 10,9 11 6 - - NNO 1011,5 20 0,0
19.07.2019 02:00:00 27,9 8,2 5 3 - - NNW 1011,5 20 -
19.07.2019 01:00:00 28,9 9,1 9 5 - - WNW 1011,1 20 0,0
19.07.2019 00:00:00 29,9 8,3 4 2 - - Z 1010,5 20 0,0
18.07.2019 23:00:00 31,2 8,2 4 2 - - W 1009,8 20 -
18.07.2019 22:00:00 32,9 8,4 8 4 - - NW 1008,8 20 0,0
18.07.2019 21:00:00 35,6 8,4 8 4 - - NW 1008,1 20 0,0
18.07.2019 20:00:00 36,9 9,5 13 7 - - W 1007,5 20 -
18.07.2019 19:00:00 37,3 8,2 5 3 - - NNO 1007,6 20 0,0
18.07.2019 18:00:00 37,6 8,4 9 5 - - WZW 1007,9 20 0,0
18.07.2019 17:00:00 37,1 8,8 9 5 - - NW 1008,4 20 -
18.07.2019 16:00:00 37,3 9,0 13 7 - - NW 1009,0 20 0,0
18.07.2019 15:00:00 36,1 9,6 13 7 - - NW 1009,8 20 0,0
18.07.2019 14:00:00 35,1 8,8 9 5 - - WZW 1010,4 20 -
18.07.2019 13:00:00 33,9 11,7 11 6 - - Z 1011,0 20 0,0
18.07.2019 12:00:00 32,1 12,3 8 4 - - OZO 1011,8 20 0,0
18.07.2019 11:00:00 29,4 11,9 4 2 - - ZW 1012,4 20 -
18.07.2019 10:00:00 26,8 11,3 8 4 - - OZO 1013,0 20 0,0
18.07.2019 09:00:00 25,1 11,3 5 3 - - ZO 1013,1 20 0,0
18.07.2019 08:00:00 21,4 9,9 4 2 - - ONO 1013,4 20 -
18.07.2019 07:00:00 22,4 9,9 4 2 - - N 1012,7 20 0,0
18.07.2019 06:00:00 22,9 10,0 2 1 - - N 1012,3 20 0,0

tt = temperatuur
td = dauwpunt
ff = windsnelheid
fx = windstoten
dd = windrichting
ppp = luchtdruk
vv = zicht
rr = neerslag

Weerstations in de omgeving